Location: Borowce
(50.8255°N, 19.6209°E)
Time: 17:22:52
(UTC+00:00)

USA 229 - Pass Details

Date: 19 May 2025
Orbit: 872 x 1339 km, 63.4° (Epoch: 17 June)

Event Time Altitude Azimuth Distance (km) Brightness Sun altitude
Exits shadow 21:33:28 26° 143° (SE) 1,760 4.3 -17.8°
Maximum altitude 21:35:12 31° 114° (ESE) 1,646 4.4 -17.9°
Drops below altitude 10° 21:40:51 10° 56° (NE) 2,853 6.2 -18.1°
Sets 21:43:55 0° 47° (NE) 3,890 7.1 -18.2°
